Regional Weather Roundup
Issued by NWS New Orleans/Baton Rouge, LA

Home | Current Version | Previous Version | Text Only | Print | Product List | Glossary On
Versions: 1 2 3 4 5 6 7 8 9 10 11 12 13 14 15 16 17 18 19 20 21 22 23 24 25 26 27 28 29 30 31 32 33 34 35 36 37 38 39 40 41 42 43 44 45 46 47 48 49 50
552
ASUS44 KLIX 291611
RWRLIX
NEW ORLEANS REGIONAL WEATHER ROUNDUP
NATIONAL WEATHER SERVICE NEW ORLEANS LA
1100 AM CDT SUN MAR 29 2015

NOTE: "FAIR" INDICATES FEW OR NO CLOUDS BELOW 12,000 FEET WITH NO
      SIGNIFICANT WEATHER AND/OR OBSTRUCTIONS TO VISIBILITY.
      SKY/WX - SKY CONDITION AND SIGNIFICANT WEATHER.
      TMP - AIR TEMPERATURE.     DP    - DEWPOINT TEMPERATURE.
      RH  - RELATIVE HUMIDITY.   PRES  - PRESSURE.
      HI  - HEAT INDEX.          WCI   - WIND CHILL INDEX.

*  THESE STATIONS ARE NOT NWS OR FAA STATIONS AND ARE NOT UNDER
   NWS QUALITY CONTROL.

LAZ038-040-048-061>063-065>067-069-291700-
SOUTHEAST LOUISIANA

CITY           SKY/WX    TMP DP  RH WIND       PRES   REMARKS
N.O. AUDUBON   NOT AVBL
N.O. INTL ARPT MOSUNNY   71  56  58 SE14G23   30.30S
N.O. LAKEFRONT SUNNY     72  54  53 SE13      30.31S
SLIDELL        MOSUNNY   68  54  60 SE10G22   30.31S
BATON ROUGE    SUNNY     68  55  63 E10       30.28F
BOOTHVILLE     SUNNY     70  60  70 SE10      30.32F
BELLE CHASSE   MOSUNNY   69  57  65 SE17      30.30F
BOGALUSA*        N/A     64  46  53 S8G16     30.33F
GALLIANO*      MOSUNNY   73  62  68 CALM      30.31S
NEW ROADS*       N/A     65  53  66 E10       30.28S
GONZALES*      CLOUDY    70  58  65 SE7G16    30.29S
HAMMOND*       SUNNY     70  54  56 SE14G22   30.32S
HOUMA*         MOSUNNY   73  63  68 S9        30.30S
PORT FOURCHON* MOSUNNY   70  63  78 SE15      30.33S

$$

MSZ070-080>082-291700-
SOUTHERN MISSISSIPPI

CITY           SKY/WX    TMP DP  RH WIND       PRES   REMARKS
MCCOMB         SUNNY     62  47  57 SE9       30.30S
GULFPORT       SUNNY     62  51  67 SE15G23   30.34R
BILOXI         SUNNY     63  51  65 SE13G23   30.34R
PASCAGOULA     SUNNY     63  48  58 SE13      30.35S
STENNIS ARPT*  MOSUNNY   64  52  63 SE12G17   30.33R

$$

COASTAL OBSERVATIONS
LAKE AND NEARSHORE STATIONS

STATION/POSITION TIME  TEMP    WIND        PRES    WAVE
                       AIR SEA DIR/SP/G            HT/PER
                 (UTC) (F)     (DEG/KT/KT) (MB)    (FT/S)
PASCAGOULA       1500   59     100/ 13/ 17 1027.2
WAVELAND YACHT   1500   60 62  120/ 17/ 19 1026.7
GRAND ISLE       1500   67 66  110/  6/ 11 1025.8
SOUTHWEST PASS   1500   67 53  110/ 12/ 14 1026.9
NEW CANAL        1500          140/  6/ 16 1026.6
SHELL BEACH      1500   66 65  120/ 17/ 21 1026.4

OFFSHORE STATIONS

STATION/POSITION TIME  TEMP    WIND        PRES    WAVE
                       AIR SEA DIR/SP/G            HT/PER
                 (UTC) (F)     (DEG/KT/KT) (MB)    (FT/S)
64 S DAUPHIN ISL 1550   66 71  140/ 14/ 16 1027.6    2/ 4

$$




USA.gov is the U.S. government's official web portal to all federal, state and local government web resources and services.